Weather History for KGSH - March, 2013

Change the Weather History Date:

Friday, March 8, 2013

  Actual Average Record
Temperature  
Mean Temperature 26 °F -  
Max Temperature 39 °F 43 °F 71 °F (1987)
Min Temperature 14 °F 26 °F -3 °F (1960)
Degree Days  
Heating Degree Days 38    
Moisture  
Dew Point 15 °F    
Average Humidity 76    
Maximum Humidity 93    
Minimum Humidity 46    
Precipitation  
Precipitation 0.00 in - - ()
Sea Level Pressure  
Sea Level Pressure 30.46 in    
Wind  
Wind Speed 0 mph (East)    
Max Wind Speed 5 mph    
Max Gust Speed -    
Visibility 4 miles    
Events Fog    
Averages and records for this station are not official NWS values.
T = Trace of Precipitation, MM = Missing Value Source: NWS Daily Summary

Daily Weather History Graph

Daily Weather History Graph

Search for Another Location

Airport or City:

Trip Planner

Search our weather history database for the weather conditions in past years. The results will help you decide how hot, cold, wet, or windy it might be!

Date:

Astronomy

Mar. 08, 2013 Rise Set
Actual Time 7:06 AM EST 6:42 PM EST
Civil Twilight 6:38 AM EST 7:09 PM EST
Nautical Twilight 6:06 AM EST 7:41 PM EST
Astronomical Twilight 5:34 AM EST 8:14 PM EST
Moon 4:52 AM EST (3/8) 3:34 PM EST (3/8)
Length of Visible Light 12h 31m
Length of Day
11h 36m
Waning Crescent, 12% of the Moon is Illuminated
Mar 8
Waning Crescent
Mar 11
New
Mar 19
First Quarter
Mar 27
Full
Apr 3
Last Quarter

Hourly Weather History & Observations

Time (EST) Temp. Windchill Dew Point Humidity Pressure Visibility Wind Dir Wind Speed Gust Speed Precip Events Conditions
12:53 AM 19.9 °F - 17.1 °F 89% 30.44 in 5.0 mi Calm Calm - N/A   Clear
1:13 AM 19.4 °F - 15.8 °F 86% 30.41 in 1.5 mi Calm Calm - N/A   Clear
1:17 AM 19.4 °F - 17.6 °F 93% 30.41 in 0.5 mi Calm Calm - N/A Fog Light Freezing Fog
1:53 AM 19.0 °F - 17.1 °F 92% 30.45 in 0.2 mi Calm Calm - N/A Fog Light Freezing Fog
2:16 AM 17.6 °F - 15.8 °F 93% 30.42 in 0.2 mi Calm Calm - N/A Fog Light Freezing Fog
2:35 AM 15.8 °F - 14.0 °F 93% 30.41 in 0.2 mi Calm Calm - N/A Fog Light Freezing Fog
2:53 AM 15.1 °F - 12.0 °F 88% 30.46 in 0.2 mi Calm Calm - N/A Fog Light Freezing Fog
3:53 AM 17.1 °F - 12.0 °F 81% 30.45 in 0.2 mi Calm Calm - N/A   Haze
4:53 AM 16.0 °F - 10.9 °F 81% 30.48 in 0.5 mi Calm Calm - N/A   Haze
5:17 AM 15.8 °F - 10.4 °F 79% 30.44 in 0.2 mi Calm Calm - N/A   Haze
5:34 AM 15.8 °F 10.2 °F 12.2 °F 86% 30.44 in 1.0 mi NE 3.5 mph - N/A   Mist
5:39 AM 15.8 °F - 12.2 °F 86% 30.44 in 3.0 mi Calm Calm - N/A   Mist
5:53 AM 17.1 °F - 12.9 °F 84% 30.48 in 3.0 mi Calm Calm - N/A   Clear
6:13 AM 14.0 °F - 8.6 °F 79% 30.45 in 1.8 mi Calm Calm - N/A   Haze
6:22 AM 14.0 °F - 8.6 °F 79% 30.45 in 2.5 mi Calm Calm - N/A   Haze
6:30 AM 14.0 °F - 8.6 °F 79% 30.45 in 1.2 mi Calm Calm - N/A   Haze
6:36 AM 14.0 °F - 8.6 °F 79% 30.45 in 3.0 mi Calm Calm - N/A   Haze
6:46 AM 15.8 °F - 10.4 °F 79% 30.45 in 2.5 mi Calm Calm - N/A   Haze
6:50 AM 15.8 °F - 10.4 °F 79% 30.45 in 3.0 mi Calm Calm - N/A   Haze
6:53 AM 15.1 °F - 10.0 °F 80% 30.49 in 5.0 mi Calm Calm - N/A   Haze
7:18 AM 15.8 °F - 10.4 °F 79% 30.46 in 1.8 mi Calm Calm - N/A   Haze
7:21 AM 15.8 °F - 10.4 °F 79% 30.46 in 0.5 mi Calm Calm - N/A   Haze
7:42 AM 14.0 °F - 10.4 °F 86% 30.46 in 0.2 mi Calm Calm - N/A Fog Light Freezing Fog
7:53 AM 14.0 °F - 10.0 °F 84% 30.51 in 0.2 mi Calm Calm - N/A Fog Light Freezing Fog
8:30 AM 17.6 °F - 14.0 °F 86% 30.48 in 0.2 mi Calm Calm - N/A Fog Light Freezing Fog
8:37 AM 19.4 °F - 15.8 °F 86% 30.48 in 1.0 mi Calm Calm - N/A   Clear
8:42 AM 19.4 °F - 15.8 °F 86% 30.48 in 3.0 mi Calm Calm - N/A   Clear
8:53 AM 21.0 °F - 19.0 °F 92% 30.52 in 4.0 mi Calm Calm - N/A   Clear
9:53 AM 28.0 °F 24.2 °F 21.9 °F 78% 30.52 in 5.0 mi East 3.5 mph - N/A   Haze
10:53 AM 28.9 °F - 21.9 °F 75% 30.52 in 9.0 mi Calm Calm - N/A   Clear
11:53 AM 34.0 °F - 23.0 °F 64% 30.52 in 10.0 mi Calm Calm - N/A   Clear
12:53 PM 37.0 °F - 19.0 °F 48% 30.51 in 10.0 mi Calm Calm - N/A   Clear
1:53 PM 37.0 °F - 19.9 °F 50% 30.48 in 10.0 mi Calm Calm - N/A   Clear
2:53 PM 37.0 °F - 19.9 °F 50% 30.47 in 10.0 mi Calm Calm - N/A   Clear
3:53 PM 37.0 °F - 19.9 °F 50% 30.46 in 10.0 mi Calm Calm - N/A   Clear
4:53 PM 39.0 °F - 19.9 °F 46% 30.44 in 10.0 mi Calm Calm - N/A   Clear
5:53 PM 37.0 °F 33.3 °F 19.9 °F 50% 30.44 in 10.0 mi SE 4.6 mph - N/A   Clear
6:53 PM 33.1 °F 28.7 °F 19.9 °F 59% 30.43 in 10.0 mi East 4.6 mph - N/A   Clear
7:53 PM 32.0 °F - 19.9 °F 61% 30.45 in 10.0 mi Calm Calm - N/A   Clear
8:53 PM 28.9 °F 25.2 °F 19.0 °F 67% 30.44 in 10.0 mi ESE 3.5 mph - N/A   Clear
9:53 PM 27.0 °F - 18.0 °F 69% 30.44 in 10.0 mi Calm Calm - N/A   Clear
10:53 PM 27.0 °F - 18.0 °F 69% 30.42 in 10.0 mi Calm Calm - N/A   Clear
11:53 PM 24.1 °F - 18.0 °F 77% 30.42 in 7.0 mi Calm Calm - N/A   Clear